Regional Weather Roundup
Issued by NWS Goodland, KS

Home | Current Version | Previous Version | Text Only | Print | Product List | Glossary Off
Versions: 1 2 3 4 5 6 7 8 9 10 11 12 13 14 15 16 17 18 19 20 21 22 23 24 25 26 27 28 29 30 31 32 33 34 35 36 37 38 39 40 41 42 43 44 45 46 47 48 49 50

000
ASUS43 KGLD 210108
RWRGLD

GOODLAND FORECAST AREA HOURLY WEATHER ROUNDUP
NATIONAL WEATHER SERVICE GOODLAND KS
700 PM MDT WED AUG 20 2014

...OFFICIAL OBSERVATIONS...

CITY           SKY/WX    TMP DP  RH WIND       PRES   REMARKS
GOODLAND KS    MOCLDY    82  63  52 NE9       29.79S
HILL CITY KS   CLOUDY    93  63  36 S14       29.71S
IMPERIAL NEB   MOCLDY    85  61  44 NW6       29.79S
MCCOOK NEB     CLOUDY    87  61  41 SW15G22   29.75R
AKRON CO       CLOUDY    75  57  53 SE14G23   29.90S
BURLINGTON CO  CLOUDY    87  52  29 NE7       29.84R
LIMON CO       PTCLDY    79  50  36 N10       29.95S
$$

...UNOFFICIAL OBSERVATIONS...

CITY           SKY/WX    TMP DP  RH WIND       PRES   REMARKS
COLBY KS       CLEAR     81  70  69 NW13      29.79R
LENORA KS        N/A     89  32  13 CALM        N/A
NORTON KS      CLEAR     88  57  35 SE7       29.71S
SHARON SPRINGS   N/A     87  59  38 N6          N/A
WAKEENEY KS      N/A     93  54  26 MISG        N/A
KIT CARSON CO    N/A     90  51  26 MISG        N/A
YUMA CO          N/A     70  60  71 CALM        N/A
$$



USA.gov is the U.S. government's official web portal to all federal, state and local government web resources and services.